Location: Newark
(40.4667°N, 5.6000°W)
Time: 22:41:35
(UTC+00:00)

Vanguard 2 - Visible Passes

Search period start: 11 November 2019 00:00
Search period end: 21 November 2019 00:00
Orbit: 554 x 2937 km, 32.9° (Epoch: 11 November)

Date Brightness Start Highest point End Pass type
(mag) Time Alt. Az. Time Alt. Az. Time Alt. Az.
18 Nov 11.8 06:00:37 10° S 06:05:43 13° SSE 06:10:02 10° SE visible
19 Nov 11.5 06:15:32 10° SSW 06:23:42 19° SSE 06:29:56 10° ESE visible
20 Nov 11.2 06:31:39 10° SSW 06:41:41 25° SSE 06:48:48 10° ESE visible
